Weather History for Tacoma Narrows, WA

Change the Weather History Date:

Saturday, December 1, 2012

  Actual Average Record
Temperature  
Mean Temperature 50 °F -  
Max Temperature 53 °F 45 °F 54 °F (2008)
Min Temperature 46 °F 38 °F 32 °F (2005)
Degree Days  
Heating Degree Days 16    
Moisture  
Dew Point 42 °F    
Average Humidity 75    
Maximum Humidity 93    
Minimum Humidity 59    
Precipitation  
Precipitation 0.28 in - - ()
Sea Level Pressure  
Sea Level Pressure 29.50 in    
Wind  
Wind Speed 12 mph (South)    
Max Wind Speed 30 mph    
Max Gust Speed 41 mph    
Visibility 10 miles    
Events Rain    
Averages and records for this station are not official NWS values.
T = Trace of Precipitation, MM = Missing Value Source: NWS Daily Summary

Daily Weather History Graph

Daily Weather History Graph

Search for Another Location

Airport:

Trip Planner

Search our weather history database for the weather conditions in past years. The results will help you decide how hot, cold, wet, or windy it might be!

Date:

Astronomy

Dec. 01, 2012 Rise Set
Actual Time 7:37 AM PST 4:21 PM PST
Civil Twilight 7:02 AM PST 4:56 PM PST
Nautical Twilight 6:23 AM PST 5:35 PM PST
Astronomical Twilight 5:46 AM PST 6:12 PM PST
Moon 7:20 PM PST (12/1) 9:50 AM PST (12/1)
Length of Visible Light 9h 54m
Length of Day
8h 44m
Waning Gibbous, 91% of the Moon is Illuminated
Dec 1
Waning Gibbous
Dec 6
Last Quarter
Dec 13
New
Dec 19
First Quarter
Dec 28
Full

Hourly Weather History & Observations

Time (PST) Temp. Windchill Dew Point Humidity Pressure Visibility Wind Dir Wind Speed Gust Speed Precip Events Conditions
12:14 AM 48.2 °F - 46.4 °F 93% 29.41 in 10.0 mi SE 3.5 mph - N/A   Overcast
12:53 AM 50.0 °F - 46.0 °F 86% 29.39 in 10.0 mi South 9.2 mph - 0.01 in Rain Light Rain
1:53 AM 48.9 °F - 46.0 °F 90% 29.39 in 7.0 mi South 9.2 mph - 0.06 in Rain Light Rain
2:34 AM 48.2 °F - 46.4 °F 93% 29.39 in 8.0 mi South 8.1 mph - 0.05 in Rain Light Rain
2:53 AM 48.0 °F - 46.0 °F 93% 29.40 in 6.0 mi South 10.4 mph - 0.08 in Rain Light Rain
3:15 AM 48.2 °F - 46.4 °F 93% 29.41 in 6.0 mi South 15.0 mph 20.7 mph 0.05 in Rain Rain
3:45 AM 50.0 °F - 44.6 °F 82% 29.43 in 10.0 mi South 27.6 mph 35.7 mph 0.09 in Rain Light Rain
3:53 AM 48.9 °F - 44.1 °F 83% 29.44 in 9.0 mi South 29.9 mph 41.4 mph 0.10 in Rain Light Rain
4:53 AM 48.9 °F - 43.0 °F 80% 29.49 in 10.0 mi South 20.7 mph 29.9 mph 0.02 in   Overcast
5:53 AM 48.0 °F - 42.1 °F 80% 29.54 in 10.0 mi South 20.7 mph 28.8 mph N/A   Clear
6:53 AM 46.9 °F - 41.0 °F 80% 29.59 in 10.0 mi SSW 16.1 mph - 0.00 in   Mostly Cloudy
7:53 AM 46.9 °F - 41.0 °F 80% 29.62 in 10.0 mi South 18.4 mph 28.8 mph N/A   Mostly Cloudy
8:53 AM 46.4 °F 40.7 °F 41.0 °F 81% 29.62 in 10.0 mi South 12.7 mph - N/A   Overcast
9:53 AM 48.9 °F - 39.0 °F 69% 29.63 in 10.0 mi South 13.8 mph 21.9 mph N/A   Overcast
10:53 AM 52.0 °F - 39.0 °F 61% 29.62 in 10.0 mi South 19.6 mph 27.6 mph N/A   Overcast
11:53 AM 53.1 °F - 39.9 °F 61% 29.61 in 10.0 mi South 19.6 mph 27.6 mph N/A   Mostly Cloudy
12:53 PM 53.1 °F - 39.0 °F 59% 29.60 in 10.0 mi South 21.9 mph 28.8 mph N/A   Mostly Cloudy
1:53 PM 52.0 °F - 39.9 °F 63% 29.60 in 10.0 mi South 18.4 mph 32.2 mph 0.00 in Rain Light Rain
2:53 PM 52.0 °F - 39.9 °F 63% 29.59 in 10.0 mi SSW 15.0 mph - 0.00 in   Overcast
3:53 PM 48.9 °F - 44.1 °F 83% 29.58 in 10.0 mi SW 5.8 mph - 0.01 in   Overcast
4:53 PM 50.0 °F - 41.0 °F 71% 29.56 in 10.0 mi South 9.2 mph - 0.00 in   Mostly Cloudy
5:53 PM 50.0 °F - 39.0 °F 66% 29.54 in 10.0 mi South 10.4 mph 18.4 mph N/A   Partly Cloudy
6:53 PM 50.0 °F - 37.9 °F 63% 29.49 in 10.0 mi South 6.9 mph - N/A   Partly Cloudy
7:53 PM 50.0 °F - 37.9 °F 63% 29.47 in 10.0 mi Calm Calm - N/A   Mostly Cloudy
8:53 PM 50.0 °F - 37.9 °F 63% 29.44 in 10.0 mi SSE 6.9 mph 16.1 mph 0.00 in   Overcast
9:53 PM 48.9 °F - 37.9 °F 66% 29.40 in 10.0 mi SE 6.9 mph - N/A   Overcast
10:53 PM 48.9 °F - 39.0 °F 69% 29.34 in 10.0 mi Variable 5.8 mph - 0.00 in Rain Light Rain
11:53 PM 48.9 °F - 37.9 °F 66% 29.27 in 10.0 mi Calm Calm - 0.00 in   Overcast